Location: Pacheco
(37.9835°N, 122.0752°W)
Time: 10:24:18
(UTC+00:00)

Cosmos 1975 - Pass Details

Date: 13 April 2024
Orbit: 514 x 533 km, 82.5° (Epoch: 24 May)

Event Time Altitude Azimuth Distance (km) Brightness Sun altitude
Rises 12:43:39 0° 338° (NNW) 2,642 6.3 -10.5°
Reaches altitude 10° 12:46:03 10° 325° (NW) 1,753 5.2 -10.1°
Maximum altitude 12:49:11 24° 270° (W) 1,106 3.8 -9.5°
Drops below altitude 10° 12:52:18 10° 216° (SW) 1,750 4.9 -8.9°
Enters shadow 12:54:38 - 202° (SSW) 2,608 5.9 -8.5°
